Time,TemperatureF,DewpointF,PressureIn,WindDirection,WindDirectionDegrees,WindSpeedMPH,WindSpeedGustMPH,Humidity,HourlyPrecipIn,Conditions,Clouds,dailyrainin,SolarRadiationWatts/m^2,SoftwareType,DateUTC
2013-02-02 00:00:00,7.0,4.0,-100.00,West,270,9.0,-999.0,85,-99.99,,,-99.99,0.000000,,2013-02-02 05:00:00,
2013-02-02 00:33:00,7.0,4.0,-100.00,West,270,9.0,-999.0,85,-99.99,,,-99.99,0.000000,,2013-02-02 05:33:00,
2013-02-02 00:42:00,7.0,4.0,-100.00,West,270,9.0,-999.0,85,-99.99,,,-99.99,0.000000,,2013-02-02 05:42:00,
2013-02-02 00:52:00,7.0,4.0,-100.00,West,270,9.0,-999.0,85,-99.99,,,-99.99,0.000000,,2013-02-02 05:52:00,
2013-02-02 01:00:00,7.0,3.0,-100.00,West,270,8.0,-999.0,84,-99.99,,,-99.99,0.000000,,2013-02-02 06:00:00,
2013-02-02 01:42:00,7.0,3.0,-100.00,West,270,8.0,-999.0,84,-99.99,,,-99.99,0.000000,,2013-02-02 06:42:00,
2013-02-02 01:52:00,7.0,3.0,-100.00,West,270,8.0,-999.0,84,-99.99,,,-99.99,0.000000,,2013-02-02 06:52:00,
2013-02-02 02:00:00,7.0,3.0,-100.00,WSW,247,7.0,-999.0,84,-99.99,,,-99.99,0.000000,,2013-02-02 07:00:00,
2013-02-02 02:42:00,7.0,3.0,-100.00,WSW,247,7.0,-999.0,84,-99.99,,,-99.99,0.000000,,2013-02-02 07:42:00,
2013-02-02 02:52:00,7.0,3.0,-100.00,WSW,247,7.0,-999.0,84,-99.99,,,-99.99,0.000000,,2013-02-02 07:52:00,
2013-02-02 04:00:00,7.0,4.0,-100.00,WSW,247,4.0,-999.0,87,-99.99,,,-99.99,0.000000,,2013-02-02 09:00:00,
2013-02-02 04:42:00,7.0,4.0,-100.00,WSW,247,4.0,-999.0,87,-99.99,,,-99.99,0.000000,,2013-02-02 09:42:00,
2013-02-02 04:52:00,7.0,4.0,-100.00,WSW,247,4.0,-999.0,87,-99.99,,,-99.99,0.000000,,2013-02-02 09:52:00,
2013-02-02 05:00:00,7.0,4.0,-100.00,WSW,247,5.0,-999.0,87,-99.99,,,-99.99,0.000000,,2013-02-02 10:00:00,
2013-02-02 05:42:00,7.0,4.0,-100.00,WSW,247,5.0,-999.0,87,-99.99,,,-99.99,0.000000,,2013-02-02 10:42:00,
2013-02-02 05:52:00,7.0,4.0,-100.00,WSW,247,5.0,-999.0,87,-99.99,,,-99.99,0.000000,,2013-02-02 10:52:00,
2013-02-02 06:00:00,7.0,4.0,-100.00,WSW,247,5.0,-999.0,87,-99.99,,,-99.99,0.000000,,2013-02-02 11:00:00,
2013-02-02 06:42:00,7.0,4.0,-100.00,WSW,247,5.0,-999.0,87,-99.99,,,-99.99,0.000000,,2013-02-02 11:42:00,
2013-02-02 06:52:00,7.0,4.0,-100.00,WSW,247,5.0,-999.0,87,-99.99,,,-99.99,0.000000,,2013-02-02 11:52:00,
2013-02-02 07:00:00,7.0,4.0,-100.00,West,270,4.0,-999.0,87,-99.99,,,-99.99,0.000000,,2013-02-02 12:00:00,
2013-02-02 07:32:00,7.0,4.0,-100.00,West,270,4.0,-999.0,87,-99.99,,,-99.99,0.000000,,2013-02-02 12:32:00,
2013-02-02 07:42:00,7.0,4.0,-100.00,West,270,4.0,-999.0,87,-99.99,,,-99.99,0.000000,,2013-02-02 12:42:00,
2013-02-02 07:53:00,7.0,4.0,-100.00,West,270,4.0,-999.0,87,-99.99,,,-99.99,0.000000,,2013-02-02 12:53:00,
2013-02-02 08:00:00,7.0,4.0,-100.00,West,270,3.0,-999.0,87,-99.99,,,-99.99,0.000000,,2013-02-02 13:00:00,
2013-02-02 08:33:00,7.0,4.0,-100.00,West,270,3.0,-999.0,87,-99.99,,,-99.99,0.000000,,2013-02-02 13:33:00,
2013-02-02 08:42:00,7.0,4.0,-100.00,West,270,3.0,-999.0,87,-99.99,,,-99.99,0.000000,,2013-02-02 13:42:00,
2013-02-02 08:52:00,7.0,4.0,-100.00,West,270,3.0,-999.0,87,-99.99,,,-99.99,0.000000,,2013-02-02 13:52:00,
2013-02-02 09:00:00,7.0,4.0,-100.00,SW,225,2.0,-999.0,87,-99.99,,,-99.99,17.400000,,2013-02-02 14:00:00,
2013-02-02 09:42:00,7.0,4.0,-100.00,SW,225,2.0,-999.0,87,-99.99,,,-99.99,17.400000,,2013-02-02 14:42:00,
2013-02-02 09:52:00,7.0,4.0,-100.00,SW,225,2.0,-999.0,87,-99.99,,,-99.99,17.400000,,2013-02-02 14:52:00,
2013-02-02 10:00:00,8.0,6.0,-100.00,SW,225,2.0,-999.0,87,-99.99,,,-99.99,110.199997,,2013-02-02 15:00:00,
2013-02-02 10:42:00,8.0,6.0,-100.00,SW,225,2.0,-999.0,87,-99.99,,,-99.99,110.199997,,2013-02-02 15:42:00,
2013-02-02 10:52:00,8.0,6.0,-100.00,SW,225,2.0,-999.0,87,-99.99,,,-99.99,110.199997,,2013-02-02 15:52:00,
2013-02-02 11:00:00,11.0,8.0,-100.00,WNW,292,3.0,-999.0,86,-99.99,,,-99.99,223.880005,,2013-02-02 16:00:00,
2013-02-02 11:42:00,11.0,8.0,-100.00,WNW,292,3.0,-999.0,86,-99.99,,,-99.99,223.880005,,2013-02-02 16:42:00,
2013-02-02 11:52:00,11.0,8.0,-100.00,WNW,292,3.0,-999.0,86,-99.99,,,-99.99,223.880005,,2013-02-02 16:52:00,
2013-02-02 12:00:00,16.0,12.0,-100.00,NNW,337,2.0,-999.0,85,-99.99,,,-99.99,348.000000,,2013-02-02 17:00:00,
2013-02-02 12:42:00,16.0,12.0,-100.00,NNW,337,2.0,-999.0,85,-99.99,,,-99.99,348.000000,,2013-02-02 17:42:00,
2013-02-02 12:53:00,16.0,12.0,-100.00,NNW,337,2.0,-999.0,85,-99.99,,,-99.99,348.000000,,2013-02-02 17:53:00,
2013-02-02 13:00:00,16.0,12.0,-100.00,NW,315,2.0,-999.0,82,0.01,,,-99.99,394.399994,,2013-02-02 18:00:00,
2013-02-02 13:42:00,16.0,12.0,-100.00,NW,315,2.0,-999.0,82,0.01,,,-99.99,394.399994,,2013-02-02 18:42:00,
2013-02-02 13:52:00,16.0,12.0,-100.00,NW,315,2.0,-999.0,82,0.01,,,-99.99,394.399994,,2013-02-02 18:52:00,
2013-02-02 14:00:00,15.0,11.0,-100.00,NW,315,4.0,-999.0,83,-99.99,,,-99.99,331.760010,,2013-02-02 19:00:00,
2013-02-02 14:42:00,15.0,11.0,-100.00,NW,315,4.0,-999.0,83,-99.99,,,-99.99,331.760010,,2013-02-02 19:42:00,
2013-02-02 14:52:00,15.0,11.0,-100.00,NW,315,4.0,-999.0,83,-99.99,,,-99.99,331.760010,,2013-02-02 19:52:00,
2013-02-02 15:00:00,18.0,11.0,-100.00,NNE,22,5.0,-999.0,73,-99.99,,,-99.99,296.959991,,2013-02-02 20:00:00,
2013-02-02 15:42:00,18.0,11.0,-100.00,NNE,22,5.0,-999.0,73,-99.99,,,-99.99,296.959991,,2013-02-02 20:42:00,
2013-02-02 15:52:00,18.0,11.0,-100.00,NNE,22,5.0,-999.0,73,-99.99,,,-99.99,296.959991,,2013-02-02 20:52:00,
2013-02-02 16:00:00,17.0,8.0,-100.00,NNE,22,4.0,-999.0,66,-99.99,,,-99.99,168.199997,,2013-02-02 21:00:00,
2013-02-02 16:32:00,17.0,8.0,-100.00,NNE,22,4.0,-999.0,66,-99.99,,,-99.99,168.199997,,2013-02-02 21:32:00,
2013-02-02 16:43:00,17.0,8.0,-100.00,NNE,22,4.0,-999.0,66,-99.99,,,-99.99,168.199997,,2013-02-02 21:43:00,
2013-02-02 16:52:00,17.0,8.0,-100.00,NNE,22,4.0,-999.0,66,-99.99,,,-99.99,168.199997,,2013-02-02 21:52:00,
2013-02-02 17:00:00,18.0,7.0,-100.00,NNE,22,4.0,-999.0,61,-99.99,,,-99.99,162.399994,,2013-02-02 22:00:00,
2013-02-02 17:32:00,18.0,7.0,-100.00,NNE,22,4.0,-999.0,61,-99.99,,,-99.99,162.399994,,2013-02-02 22:32:00,
2013-02-02 17:42:00,18.0,7.0,-100.00,NNE,22,4.0,-999.0,61,-99.99,,,-99.99,162.399994,,2013-02-02 22:42:00,
2013-02-02 17:52:00,18.0,7.0,-100.00,NNE,22,4.0,-999.0,61,-99.99,,,-99.99,162.399994,,2013-02-02 22:52:00,
2013-02-02 18:00:00,14.0,4.0,-100.00,NE,45,2.0,-999.0,65,-99.99,,,-99.99,22.040001,,2013-02-02 23:00:00,
2013-02-02 18:42:00,14.0,4.0,-100.00,NE,45,2.0,-999.0,65,-99.99,,,-99.99,22.040001,,2013-02-02 23:42:00,
2013-02-02 18:52:00,14.0,4.0,-100.00,NE,45,2.0,-999.0,65,-99.99,,,-99.99,22.040001,,2013-02-02 23:52:00,
2013-02-02 19:00:00,12.0,2.0,-100.00,East,90,2.0,-999.0,63,-99.99,,,-99.99,0.000000,,2013-02-03 00:00:00,
2013-02-02 19:42:00,12.0,2.0,-100.00,East,90,2.0,-999.0,63,-99.99,,,-99.99,0.000000,,2013-02-03 00:42:00,
2013-02-02 19:52:00,12.0,2.0,-100.00,East,90,2.0,-999.0,63,-99.99,,,-99.99,0.000000,,2013-02-03 00:52:00,
2013-02-02 20:00:00,12.0,2.0,-100.00,SE,135,0.0,-999.0,62,-99.99,,,-99.99,0.000000,,2013-02-03 01:00:00,
2013-02-02 20:42:00,12.0,2.0,-100.00,SE,135,0.0,-999.0,62,-99.99,,,-99.99,0.000000,,2013-02-03 01:42:00,
2013-02-02 20:52:00,12.0,2.0,-100.00,SE,135,0.0,-999.0,62,-99.99,,,-99.99,0.000000,,2013-02-03 01:52:00,
2013-02-02 21:00:00,12.0,4.0,-100.00,SSW,202,1.0,-999.0,69,-99.99,,,-99.99,0.000000,,2013-02-03 02:00:00,
2013-02-02 21:42:00,12.0,4.0,-100.00,SSW,202,1.0,-999.0,69,-99.99,,,-99.99,0.000000,,2013-02-03 02:42:00,
2013-02-02 21:52:00,12.0,4.0,-100.00,SSW,202,1.0,-999.0,69,-99.99,,,-99.99,0.000000,,2013-02-03 02:52:00,
2013-02-02 22:00:00,11.0,4.0,-100.00,South,180,2.0,-999.0,70,-99.99,,,-99.99,0.000000,,2013-02-03 03:00:00,
2013-02-02 22:42:00,11.0,4.0,-100.00,South,180,2.0,-999.0,70,-99.99,,,-99.99,0.000000,,2013-02-03 03:42:00,
2013-02-02 22:52:00,11.0,4.0,-100.00,South,180,2.0,-999.0,70,-99.99,,,-99.99,0.000000,,2013-02-03 03:52:00,
2013-02-02 23:00:00,11.0,4.0,-100.00,South,180,1.0,-999.0,73,-99.99,,,-99.99,0.000000,,2013-02-03 04:00:00,
2013-02-02 23:42:00,11.0,4.0,-100.00,South,180,1.0,-999.0,73,-99.99,,,-99.99,0.000000,,2013-02-03 04:42:00,
2013-02-02 23:52:00,11.0,4.0,-100.00,South,180,1.0,-999.0,73,-99.99,,,-99.99,0.000000,,2013-02-03 04:52:00,